Regional Weather Roundup
Issued by NWS

Home | Current Version | Previous Version | Graphics & Text | Print | Product List | Glossary On
Versions: 1 2 3 4 5 6 7 8 9 10 11 12 13 14 15 16 17 18 19 20 21 22 23 24 25 26 27 28 29 30 31 32 33 34 35 36 37 38 39 40 41 42 43 44 45 46 47 48 49 50
000
ASUS43 KDMX 301703
RWRIA

WEATHER ROUNDUP FOR IOWA
NATIONAL WEATHER SERVICE DES MOINES IA
1200 PM CDT FRI SEP 30 2016

NOTE: "FAIR" INDICATES FEW OR NO CLOUDS BELOW 12,000 FEET WITH NO
SIGNIFICANT WEATHER AND/OR OBSTRUCTIONS TO VISIBILITY.

* - THESE STATIONS ARE NOT NWS STATIONS...THUS NOT UNDER NWS
QUALITY CONTROL.  THEY ALSO DO NOT REPORT WEATHER SUCH
AS PRECIPITATION OR FOG.

IAZ001>003-012>014-020>022-031>034-043>046-301800-
   NORTHWEST IOWA

CITY           SKY/WX    TMP DP  RH WIND       PRES   REMARKS
CARROLL *      SUNNY     68  52  56 N15       30.28F
CHEROKEE *     MOSUNNY   67  51  56 NE7       30.31F
DENISON *      MOSUNNY   68  52  56 N9        30.27F
LE MARS *      SUNNY     68  48  49 CALM      30.31F
SHELDON *      MOSUNNY   68  48  49 SE8       30.30F
SIOUX CITY     SUNNY     68  52  56 VRB3      30.29F
SPENCER        MOSUNNY   69  52  54 NE9       30.31F
STORM LAKE *   SUNNY     66  50  55 NE8       30.31F
$$

IAZ055>058-069>071-079>083-090>094-301800-
   SOUTHWEST IOWA

CITY           SKY/WX    TMP DP  RH WIND       PRES   REMARKS
ATLANTIC *     SUNNY     68  52  56 N13       30.27F
AUDUBON *      SUNNY     66  54  63 NE9       30.29F
CLARINDA *       N/A     70  52  52 MISG      30.27F
COUNCIL BLFS * SUNNY     68  50  52 VRB6      30.28F
CRESTON *      SUNNY     64  52  63 N14       30.26F
HARLAN  *      SUNNY     68  50  52 NE8       30.31F
LAMONI         PTSUNNY   64  55  72 N8        30.24F
RED OAK *      SUNNY     68  52  56 NE12G17   30.27F
SHENANDOAH *   SUNNY     70  48  46 NE8G16    30.27F
$$

IAZ047>049-059>061-072>074-084-301800-
   CENTRAL IOWA

CITY           SKY/WX    TMP DP  RH WIND       PRES   REMARKS
AMES           CLOUDY    61  55  81 NE10      30.26F
ANKENY *         N/A    N/A N/A N/A MISG        N/A
BOONE *        CLOUDY    61  54  77 NE9       30.26F
CHARITON *       N/A     64  54  68 N9        30.24S
DES MOINES     CLOUDY    63  53  70 NE12      30.25F
GRINNELL*      CLOUDY    62  54  73 NE8       30.25S
KNOXVILLE *    CLOUDY    63  52  67 N9        30.23S
MARSHALLTOWN   CLOUDY    63  55  75 N12       30.24F
NEWTON *       CLOUDY    63  54  72 N12       30.23F
PELLA *        CLOUDY    63  53  71 NE6       30.25S
PERRY *        CLOUDY    64  55  72 N10       30.27F HAZE
$$

IAZ004>006-015-016-023>025-035-036-301800-
   NORTH CENTRAL IOWA

CITY           SKY/WX    TMP DP  RH WIND       PRES   REMARKS
ALGONA *       MOSUNNY   66  54  63 NE12      30.31F
CLARION *      CLOUDY    64  54  68 NE10G17   30.29F
ESTHERVILLE    SUNNY     66  51  58 NE8       30.31F
FORT DODGE *   CLOUDY    66  55  68 N7G16     30.30F
MASON CITY     PTSUNNY   65  52  62 NE8G20    30.30F
FOREST CITY *    N/A     68  52  56 NE9       30.29F
WEBSTER CITY * CLOUDY    63  54  72 NE12G17   30.27S
IOWA FALLS *   CLOUDY    61  55  78 NE12      30.28F
$$

IAZ007>011-017>019-026>030-037>042-050>054-066-301800-
   NORTHEAST IOWA

CITY           SKY/WX    TMP DP  RH WIND       PRES   REMARKS
CEDAR RAPIDS   CLOUDY    62  57  83 NE10G21   30.22S
CHARLES CITY * CLOUDY    63  55  77 NE9       30.28F
DECORAH *      CLOUDY    61  55  82 VRB7      30.26F
DUBUQUE        CLOUDY    60  56  86 NE14      30.22F
MONTICELLO *   CLOUDY    61  55  82 NE7       30.23S
OELWEIN *      CLOUDY    63  55  77 NE9G17    30.26S
WATERLOO       CLOUDY    61  54  77 NE10      30.25S
$$

IAZ064-065-067-068-078-301800-
   EAST CENTRAL IOWA

CITY           SKY/WX    TMP DP  RH WIND       PRES   REMARKS
DAVENPORT      CLOUDY    62  56  80 NE14      30.19F
IOWA CITY      CLOUDY    64  55  72 NE13      30.23S
MT. PLEASANT * CLOUDY    65  58  77 NE12      30.20S
MUSCATINE *    CLOUDY    64  55  72 NE13G18   30.20F
QUAD CITIES    CLOUDY    64  56  75 N12       30.18F
$$

IAZ062-063-075>077-085>089-095>099-301800-
   SOUTHEAST IOWA

CITY           SKY/WX    TMP DP  RH WIND       PRES   REMARKS
BURLINGTON     CLOUDY    62  57  83 N13       30.18S
FAIRFIELD *    CLOUDY    63  55  77 N14       30.20F
FORT MADISON *   N/A     63  55  77 N10       30.19S
KEOKUK *       CLOUDY    63  57  82 NE8G17    30.17S
OSKALOOSA *    CLOUDY    63  54  74 NE7       30.22F
OTTUMWA        CLOUDY    64  54  69 N9        30.21F
WASHINGTON *     N/A    N/A N/A N/A MISG        N/A
$$

ABBREVIATIONS USED IN REMARKS
   TC - TEMPERATURES IN CELSIUS
  WCI - WIND CHILL INDEX
   HX - HEAT INDEX
  VSB - VISIBILITY
$$




USA.gov is the U.S. government's official web portal to all federal, state and local government web resources and services.